Other Public Products
Issued by NWS Charleston, SC

Current Version | Previous Version | Graphics & Text | Print | Product List | Glossary On
Versions: 1 2 3 4 5 6 7 8 9 10 11 12 13 14 15 16 17 18 19 20 21 22 23 24 25 26 27 28 29 30 31 32 33 34 35 36 37 38 39 40 41 42 43 44 45 46 47 48 49 50
000 FPUS82 KCHS 051212 OPUCHS TEST...KCHS/KSAV Gateway Observations...TEST National Weather Service Charleston SC 700 AM EST MON DEC 05 2016 NOTE: "fair" indicates few or no clouds below 12,000 feet with no significant weather and/or obstructions to visibility. SCZ050-WAZ558-NCZ071-TXZ119-213-PAZ071-DCZ001-FLZ074-172-MI076- NYZ176-178-MAZ016-IL014-TNZ027-NJZ106-GAZ044-MD014-051300- ...Gateway Observations for Charleston International... CITY SKY/WX TMP DP RH WIND PRES REMARKS Chas Airport MOCLDY 57 54 89 N6 29.95S FOG 6HR MIN TEMP: 57; 6HR MAX TEMP: 69; 6HR PCP: 0.08; Seattle CLOUDY 37 33 85 S12G22 30.12F WCI 29 6HR MIN TEMP: 35; 6HR MAX TEMP: 37; Charlotte CLOUDY 43 41 93 NW3 30.01R 6HR MIN TEMP: 42; 6HR MAX TEMP: 43; 6HR PCP: 0.08; Dallas DFW CLOUDY 47 41 80 NE9 29.91S 6HR MIN TEMP: 47; 6HR MAX TEMP: 49; Dallas Love CLOUDY 48 42 80 NE7 29.92F 6HR MIN TEMP: 48; 6HR MAX TEMP: 50; Philladelphia CLOUDY 41 39 93 SW12 30.02R 6HR MIN TEMP: 40; 6HR MAX TEMP: 42; 6HR PCP: 0.11; Wash National CLOUDY 42 41 96 SW6 30.01S 6HR MIN TEMP: 40; 6HR MAX TEMP: 42; 6HR PCP: 0.15; Baltimore CLOUDY 41 40 96 SW6 30.00S 6HR MIN TEMP: 38; 6HR MAX TEMP: 41; 6HR PCP: 0.19; Miami PTCLDY 75 72 90 SE10 30.02R 6HR MIN TEMP: 75; 6HR MAX TEMP: 77; Detroit CLOUDY 37 33 85 W12 29.99R WCI 29 6HR MIN TEMP: 34; 6HR MAX TEMP: 37; Newark LGT RAIN 38 37 97 CALM 30.02F FOG 6HR MIN TEMP: 37; 6HR MAX TEMP: 44; 6HR PCP: 0.16; Laguardia LGT RAIN 41 37 86 SW7 30.02S FOG 6HR MIN TEMP: 40; 6HR MAX TEMP: 43; 6HR PCP: 0.16; J F K LGT RAIN 41 37 86 W6 30.03S 6HR MIN TEMP: 40; 6HR MAX TEMP: 47; 6HR PCP: 0.18; Boston Logan FLURRIES 32 26 78 N5 30.07F WCI 27 6HR MIN TEMP: 31; 6HR MAX TEMP: 33; 6HR PCP: TRACE; Ft. Lauderdale PTCLDY 77 71 82 SE14 30.01R 6HR MIN TEMP: 77; 6HR MAX TEMP: 78; Chicago O`Hare CLOUDY 33 31 92 W10 29.99F WCI 25 6HR MIN TEMP: 32; 6HR MAX TEMP: 33; Chicago Midway CLOUDY 34 30 85 W5 30.00F WCI 30 6HR MIN TEMP: 33; 6HR MAX TEMP: 34; Houston Bush RAIN 50 48 93 E16 29.81F 6HR MIN TEMP: 50; 6HR MAX TEMP: 51; 6HR PCP: 0.50; Houston Hobby LGT RAIN 51 49 92 NE14 29.83F 6HR MIN TEMP: 50; 6HR MAX TEMP: 52; 6HR PCP: 0.56; Nashville CLOUDY 44 39 82 N10 30.05F 6HR MIN TEMP: 44; 6HR MAX TEMP: 47; Atlanta FOG 45 44 97 E7 29.99F VSB 1 6HR MIN TEMP: 44; 6HR MAX TEMP: 45; 6HR PCP: 0.01; $$ GAZ044-118-TXZ119-213-NCZ071-DCZ001-MDZ014-506-PAZ021-071-NJZ106- NYZ176-178-MAZ106-OHZ011-021-055-MIZ076-KYZ091-ILZ014-INZ047- MNZ060-051300- ...Gateway Observations for Savannah International... CITY SKY/WX TMP DP RH WIND PRES REMARKS Savannah Arpt LGT RAIN 65 63 93 S16 29.93F FOG 6HR MIN TEMP: 63; 6HR MAX TEMP: 70; 6HR PCP: 0.17; Atlanta FOG 45 44 97 E7 29.99F VSB 1 6HR MIN TEMP: 44; 6HR MAX TEMP: 45; 6HR PCP: 0.01; Charlotte CLOUDY 43 41 93 NW3 30.01R 6HR MIN TEMP: 42; 6HR MAX TEMP: 43; 6HR PCP: 0.08; Dallas DFW CLOUDY 47 41 80 NE9 29.91S 6HR MIN TEMP: 47; 6HR MAX TEMP: 49; Houston Bush RAIN 50 48 93 E16 29.81F 6HR MIN TEMP: 50; 6HR MAX TEMP: 51; 6HR PCP: 0.50; Wash National CLOUDY 42 41 96 SW6 30.01S 6HR MIN TEMP: 40; 6HR MAX TEMP: 42; 6HR PCP: 0.15; Wash Dulles CLOUDY 40 37 89 SW8 30.00R WCI 34 6HR MIN TEMP: 38; 6HR MAX TEMP: 40; 6HR PCP: 0.12; Baltimore CLOUDY 41 40 96 SW6 30.00S 6HR MIN TEMP: 38; 6HR MAX TEMP: 41; 6HR PCP: 0.19; Philadelphia CLOUDY 41 39 93 SW12 30.02R 6HR MIN TEMP: 40; 6HR MAX TEMP: 42; 6HR PCP: 0.11; Newark LGT RAIN 38 37 97 CALM 30.02F FOG 6HR MIN TEMP: 37; 6HR MAX TEMP: 44; 6HR PCP: 0.16; Laguardia LGT RAIN 41 37 86 SW7 30.02S FOG 6HR MIN TEMP: 40; 6HR MAX TEMP: 43; 6HR PCP: 0.16; J F K LGT RAIN 41 37 86 W6 30.03S 6HR MIN TEMP: 40; 6HR MAX TEMP: 47; 6HR PCP: 0.18; Boston FLURRIES 32 26 78 N5 30.07F WCI 27 6HR MIN TEMP: 31; 6HR MAX TEMP: 33; 6HR PCP: TRACE; Pittsburg CLOUDY 41 36 82 W13G23 29.99R 6HR MIN TEMP: 38; 6HR MAX TEMP: 44; 6HR PCP: TRACE; Akron CLOUDY 35 30 82 W12 30.02R WCI 27 6HR MIN TEMP: 35; 6HR MAX TEMP: 39; Cleveland CLOUDY 37 30 75 SW12 30.05R WCI 29 6HR MIN TEMP: 37; 6HR MAX TEMP: 40; 6HR PCP: TRACE; Cincinnati CLOUDY 37 33 85 NW5 30.08R WCI 33 6HR MIN TEMP: 37; 6HR MAX TEMP: 41; Columbus CLOUDY 35 32 86 W6 30.08R WCI 30 Detroit CLOUDY 37 33 85 W12 29.99R WCI 29 6HR MIN TEMP: 34; 6HR MAX TEMP: 37; Chicago O`Hare CLOUDY 33 31 92 W10 29.99F WCI 25 6HR MIN TEMP: 32; 6HR MAX TEMP: 33; Minneapolis PTCLDY 28 26 92 E7 29.78F WCI 21 6HR MIN TEMP: 27; 6HR MAX TEMP: 33; Indianapolis CLOUDY 34 30 85 W5 30.07R WCI 30 6HR MIN TEMP: 34; 6HR MAX TEMP: 35; $$

USA.gov is the U.S. government's official web portal to all federal, state and local government web resources and services.